Regional Weather Roundup
Issued by NWS

Home | Current Version | Previous Version | Graphics & Text | Print | Product List | Glossary On
Versions: 1 2 3 4 5 6 7 8 9 10 11 12 13 14 15 16 17 18 19 20 21 22 23 24 25 26 27 28 29 30 31 32 33 34 35 36 37 38 39 40 41 42 43 44 45 46 47 48 49 50
000
ASUS43 KOAX 092210
RWRNE

WEATHER ROUNDUP FOR NEBRASKA
NATIONAL WEATHER SERVICE OMAHA NE
500 PM CDT WED JUL 09 2014

NOTES: SATELLITE DATA IS BEING USED TO AUGMENT CLOUD COVER ABOVE
       12000 FEET.
       "FAIR" INDICATES FEW OR NO CLOUDS BELOW 12,000 FEET WITH NO
       SIGNIFICANT WEATHER AND/OR OBSTRUCTIONS TO VISIBILITY.

  * THESE STATIONS DO NOT REPORT WEATHER SUCH AS RAIN...SNOW OR FOG.

NEZ001>004-019>022-054>056-092300-
NEBRASKA PANHANDLE

CITY           SKY/WX    TMP DP  RH WIND       PRES   REMARKS
SCOTTSBLUFF    SUNNY     93  58  30 E8        29.94F HX  92
ALLIANCE       SUNNY     92  49  22 W6        29.96F
CHADRON          N/A     88  58  36 NE12G18   29.94F
KIMBALL        PTSUNNY   88  46  23 SW12      29.99F
SIDNEY         SUNNY     92  53  26 S10G18    29.99F
$$

NEZ057>060-069>072-079>082-092300-
SOUTHWEST NEBRASKA

CITY           SKY/WX    TMP DP  RH WIND       PRES   REMARKS
NORTH PLATTE   SUNNY     88  60  38 S10       29.94F
IMPERIAL       SUNNY     92  58  31 S18G26    29.94F HX  91
LEXINGTON      MOSUNNY   89  56  33 S16       29.97S
MCCOOK         SUNNY     90  61  37 S15G24    29.95F HX  90
OGALLALA         N/A    N/A N/A N/A MISG        N/A
$$

NEZ005>010-023>029-035>040-094-092300-
NORTH CENTRAL NEBRASKA

CITY           SKY/WX    TMP DP  RH WIND       PRES   REMARKS
VALENTINE      PTSUNNY   72  58  61 E16G25    30.02F
AINSWORTH      CLOUDY    63  59  89 E12G22    30.04F
BROKEN BOW     CLOUDY    78  63  59 E12G28    30.00S
O`NEILL        CLOUDY    65  58  80 SE7       30.05S
ORD            TSTM      67  60  78 E10       30.02F
THEDFORD       SUNNY     80  63  56 E20G25    29.99F
$$

NEZ041-046>049-061>064-073>077-083>087-092300-
SOUTH CENTRAL NEBRASKA

CITY           SKY/WX    TMP DP  RH WIND       PRES   REMARKS
GRAND ISLAND   CLOUDY    78  61  55 SE8       30.02S
AURORA         CLOUDY    77  62  59 E10       30.02S
HASTINGS       PTSUNNY   83  57  41 SE7       30.01F
HEBRON         PTSUNNY   86  59  39 SE3       30.00F
HOLDREGE       MOSUNNY   86  54  32 S16       29.98R
KEARNEY *      CLOUDY    84  61  45 SE14G20   30.00S
YORK           CLOUDY    75  63  64 SE10      30.01F
$$

NEZ011>018-030>034-042>045-092300-
NORTHEAST NEBRASKA

CITY           SKY/WX    TMP DP  RH WIND       PRES   REMARKS
NORFOLK        CLOUDY    72  56  57 SW7       30.06R
ALBION         TSTM      67  61  80 NE9       30.08R
BLAIR          PTSUNNY   80  57  44 SW5       30.03F
FREMONT        CLOUDY    82  56  41 S3        30.02F
TEKAMAH        PTSUNNY   83  58  42 VRB6      30.01F
WAYNE          MOSUNNY   80  59  49 SW7       30.02F
$$

NEZ050>053-065>068-078-088>093-092300-
SOUTHEAST NEBRASKA

CITY           SKY/WX    TMP DP  RH WIND       PRES   REMARKS
LINCOLN        CLOUDY    78  60  53 S3        30.03F
OMAHA EPPLEY   PTSUNNY   83  54  36 SW6       30.02F
BEATRICE       CLOUDY    79  60  51 E5        30.02F
FALLS CITY     MOSUNNY   83  60  45 E5        30.03F
NEBRASKA CITY  PTSUNNY   79  57  46 CALM      30.03F
PLATTSMOUTH    PTSUNNY   79  60  51 SE5       30.03F
$$

NEZ044-045-051>053-067-092300-
OMAHA AREA

CITY           SKY/WX    TMP DP  RH WIND       PRES   REMARKS
OMAHA EPPLEY   PTSUNNY   83  54  36 SW6       30.02F
BLAIR          PTSUNNY   80  57  44 SW5       30.03F
FREMONT        CLOUDY    82  56  41 S3        30.02F
MILLARD        CLOUDY    81  60  48 SE5       30.01F
OFFUTT AFB     PTSUNNY   82  59  46 VRB1      30.02F
PLATTSMOUTH    PTSUNNY   79  60  51 SE5       30.03F
WAHOO          FAIR      82  57  42 CALM      30.01F
$$



USA.gov is the U.S. government's official web portal to all federal, state and local government web resources and services.